EW7942 Weather Reports


time (UTC)temp
C
wind
direction
speed
KPH
gust
KPH
rain 1hr
cm
rain 24hr
cm
rain mn
cm
humidity
%
barometer
mb
20260509084609 16 118 0.0 3.2 0.00 0.00 0.00 89 1014.1
20260509084111 16 150 0.0 0.0 0.00 0.00 0.00 89 1014.2
20260509083829 16 150 0.0 1.6 0.00 0.00 0.00 89 1014.3
20260509083600 16 150 1.6 1.6 0.00 0.00 0.00 89 1014.1
20260509082612 16 152 0.0 3.2 0.00 0.00 0.00 89 1014.3
20260509082112 16 151 0.0 3.2 0.00 0.00 0.00 89 1014.6
20260509081612 16 160 0.0 1.6 0.00 0.00 0.00 89 1014.4
20260509081112 16 162 0.0 1.6 0.00 0.00 0.00 89 1014.3
20260509080612 16 162 0.0 1.6 0.00 0.00 0.00 89 1014.5
20260509080112 16 161 0.0 1.6 0.00 0.00 0.00 89 1014.6
20260509075612 16 163 0.0 3.2 0.00 0.00 0.00 89 1014.5
20260509075113 16 170 1.6 3.2 0.00 0.00 0.00 89 1014.5
20260509074611 16 203 0.0 1.6 0.00 0.00 0.00 90 1014.7
20260509074112 16 215 0.0 0.0 0.00 0.00 0.00 90 1014.5
20260509073832 16 216 0.0 1.6 0.00 0.00 0.00 90 1014.6
20260509073110 16 216 0.0 1.6 0.00 0.00 0.00 90 1014.6
20260509072611 16 215 0.0 3.2 0.00 0.00 0.00 90 1014.5
20260509072111 16 216 1.6 3.2 0.00 0.00 0.00 89 1014.6
20260509071613 16 197 1.6 3.2 0.00 0.00 0.00 89 1014.5
20260509071335 16 186 0.0 1.6 0.00 0.00 0.00 90 1014.5
20260509071218 16 213 0.0 1.6 0.00 0.00 0.00 90 1014.8
20260509070113 16 213 0.0 1.6 0.00 0.00 0.00 90 1014.9
20260509070106 16 214 1.6 4.8 0.00 0.00 0.00 90 1014.9
20260509065110 16 159 0.0 4.8 0.00 0.00 0.00 89 1014.7
20260509064834 16 177 0.0 1.6 0.00 0.00 0.00 89 1015.0
20260509064110 16 203 0.0 1.6 0.00 0.00 0.00 90 1014.9
20260509063609 16 212 0.0 1.6 0.00 0.00 0.00 90 1014.9
20260509063109 16 207 0.0 1.6 0.00 0.00 0.00 90 1015.0
20260509062609 16 193 0.0 1.6 0.00 0.00 0.00 90 1014.7
20260509062108 16 191 0.0 1.6 0.00 0.00 0.00 91 1015.1
20260509061828 16 286 0.0 1.6 0.00 0.00 0.00 91 1015.1
20260509061111 16 286 1.6 3.2 0.00 0.00 0.00 91 1015.0
20260509060610 16 286 1.6 3.2 0.00 0.00 0.00 90 1015.0
20260509060111 16 223 0.0 1.6 0.00 0.00 0.00 90 1014.9
20260509055610 16 222 0.0 3.2 0.00 0.00 0.00 89 1014.8
20260509055109 16 206 0.0 3.2 0.00 0.00 0.00 89 1015.2
20260509054610 16 223 3.2 3.2 0.00 0.00 0.00 89 1014.7
20260509054109 16 184 0.0 4.8 0.00 0.00 0.00 89 1015.0
20260509053609 16 346 0.0 4.8 0.00 0.00 0.00 89 1014.9
20260509053109 16 202 0.0 3.2 0.00 0.00 0.00 88 1015.1
20260509052610 16 172 0.0 1.6 0.00 0.00 0.00 88 1015.0
20260509052109 16 173 0.0 3.2 0.00 0.00 0.00 88 1015.0
20260509051609 16 175 1.6 3.2 0.00 0.00 0.00 88 1015.1
20260509051109 16 172 1.6 4.8 0.00 0.00 0.00 88 1015.3
20260509050609 16 175 0.0 4.8 0.00 0.00 0.00 88 1015.0
20260509050110 16 173 0.0 4.8 0.00 0.00 0.00 88 1015.1
20260509045609 16 170 0.0 4.8 0.00 0.00 0.00 88 1015.3
20260509045109 16 171 0.0 3.2 0.00 0.00 0.00 88 1015.0
20260509044827 16 125 0.0 3.2 0.00 0.00 0.00 88 1015.0
20260509044112 16 180 0.0 3.2 0.00 0.00 0.00 88 1015.1
20260509043610 16 116 1.6 3.2 0.00 0.00 0.00 88 1014.9
20260509043328 16 175 0.0 3.2 0.00 0.00 0.00 87 1014.8
20260509043214 16 163 1.6 3.2 0.00 0.00 0.00 87 1015.0
20260509042112 16 214 0.0 3.2 0.00 0.00 0.00 86 1014.9
20260509041610 16 171 0.0 1.6 0.00 0.00 0.00 85 1014.5
20260509041057 17 167 0.0 3.2 0.00 0.00 0.00 85 1014.5
20260509040559 17 168 0.0 3.2 0.00 0.00 0.00 84 1014.4
20260509040256 17 192 0.0 3.2 0.00 0.00 0.00 83 1014.4
20260509040138 17 165 1.6 1.6 0.00 0.00 0.00 84 1014.6
20260509035524 17 160 0.0 4.8 0.00 0.00 0.00 83 1014.4
20260509034547 17 210 0.0 4.8 0.00 0.00 0.00 83 1014.5
20260509034035 17 196 0.0 0.0 0.00 0.00 0.00 82 1014.4